• Join FlightAware (Why Join?)
  • Login
  • US Flag 
02:00PM EDT


 

Airport Tracker/Info


-or-


 

Live Flight TrackerFlight Track Log ✈ ASQ6151 ✈ 13-May-2013 ✈ KORD - KPIA

Flight Track Log - Related Links

Times and Time Zones

All times are in EDT time to prevent confusion due to time zone crossing. See the ASQ6151 flight status page for this flight to view local times or setup timezone preferences in your user account.

Time Position Orientation Groundspeed Altitude Reporting Facility
EDT Latitude Longitude Course Direction KTS MPH feet Rate Location/Type
10:19PM 41.9333 -87.9167 217° Southwest 177 204 2,400  Level Chicago TRACON
10:20PM 41.9000 -87.9500 217° Southwest 222 255 3,900 2,580 Climbing Chicago TRACON
10:21PM 41.8833 -88.0333 255° West 255 293 7,100 3,000 Climbing Chicago TRACON
10:22PM 41.8739 -88.1778 265° West 262 302 11,600 2,280 Climbing Chicago Center
10:23PM 41.8556 -88.2769 256° West 274 315 13,000 1,260 Climbing Chicago Center
10:25PM 41.8403 -88.3961 260° West 322 371 14,200 1,320 Climbing Chicago Center
10:26PM 41.8244 -88.5222 260° West 342 394 15,800 840 Climbing Chicago Center
10:27PM 41.7653 -88.6647 241° Southwest 378 435 16,000 60 Climbing Chicago Center
10:28PM 41.6778 -88.7550 218° Southwest 402 463 16,000  Level Chicago Center
10:29PM 41.5892 -88.8497 219° Southwest 410 472 16,000 -480 Level Chicago Center
10:30PM 41.5011 -88.9411 218° Southwest 407 468 15,100 -1,440 Descending Chicago Center
10:31PM 41.4175 -89.0289 218° Southwest 389 448 13,100 -1,920 Descending Chicago Center
10:32PM 41.3350 -89.1147 218° Southwest 384 442 11,200 -1,560 Descending Chicago Center
10:33PM 41.2464 -89.2083 218° Southwest 370 426 10,000 -600 Descending Chicago Center
10:34PM 41.1706 -89.2872 218° Southwest 352 405 10,000  Level Chicago Center
10:35PM 41.0975 -89.3633 218° Southwest 340 391 10,000 -840 Level Chicago Center
10:36PM 41.0386 -89.4250 218° Southwest 282 325 8,400 -1,740 Descending Chicago Center
10:37PM 40.9803 -89.4856 218° Southwest 271 312 6,500 -1,680 Descending Chicago Center
10:38PM 40.9236 -89.5436 218° Southwest 262 302 5,100 -1,260 Descending Chicago Center
10:39PM 40.8608 -89.5736 200° South 252 290 4,000 -840 Descending Chicago Center
10:40PM 40.7972 -89.5914 192° South 237 273 3,400 -600 Descending Chicago Center